{"data":{"norad_id":62194,"epoch":"2026-09-20T15:58:50.570112Z","epoch_age_seconds":163884,"freshness":"FRESH","line1":"1 62194U 24229C   26263.66586308  .00008427  00000+0  31539-3 0  9996","line2":"2 62194  42.9994 249.3202 0000858 276.5719  83.5035 15.27580939101567","mean_motion":15.27580939,"eccentricity":8.58e-5,"inclination_deg":42.9994,"raan_deg":249.3202,"arg_perigee_deg":276.5719,"mean_anomaly_deg":83.5035,"bstar":0.00031539,"rev_number":10156,"period_min":94.266690768128,"perigee_km":482.45759481149,"apogee_km":483.63497386309,"semimajor_km":6861.1832843373,"source":"CELESTRAK","updated_at":"2026-09-22T09:00:49.539252Z"}}